Location: Azul
(36.7830°S, 59.8500°W)
Time: 16:50:56
(UTC-03:00)

BUGSAT 1 - Pass Details

Date: 30 October 2021
Orbit: 558 x 600 km, 98.1° (Epoch: 06 December)

Event Time Altitude Azimuth Distance (km) Brightness Sun altitude
Rises 04:37:09 0° 30° (NNE) 2,814 ? -15.2°
Reaches altitude 10° 04:39:22 10° 37° (NE) 1,928 ? -14.8°
Maximum altitude 04:43:19 42° 108° (ESE) 872 ? -14.1°
Drops below altitude 10° 04:47:22 10° 178° (S) 1,971 ? -13.4°
Sets 04:49:38 0° 184° (S) 2,886 ? -13.0°
